| time (UTC) | temp F | wind direction | speed MPH | gust MPH | rain 1hr in | rain 24hr in | rain mn in | humidity % | barometer mb |
| 20260903125003 | 57 | 183 | 4.0 | 8.0 | 0.00 | 0.00 | 0.00 | 86 | 1008.0 |
| 20260903124715 | 58 | 187 | 4.0 | 8.0 | 0.00 | 0.00 | 0.00 | 85 | 1008.0 |
| 20260903124214 | 58 | 190 | 3.0 | 8.0 | 0.00 | 0.00 | 0.00 | 84 | 1008.0 |
| 20260903123504 | 58 | 185 | 3.0 | 6.0 | 0.00 | 0.00 | 0.00 | 84 | 1008.1 |
| 20260903123003 | 58 | 188 | 3.0 | 7.0 | 0.00 | 0.00 | 0.00 | 84 | 1008.2 |
| 20260903122503 | 58 | 195 | 3.0 | 7.0 | 0.00 | 0.00 | 0.00 | 84 | 1008.1 |
| 20260903122003 | 58 | 195 | 3.0 | 7.0 | 0.00 | 0.00 | 0.00 | 83 | 1008.2 |
| 20260903121712 | 58 | 183 | 2.0 | 7.0 | 0.00 | 0.00 | 0.00 | 83 | 1008.1 |
| 20260903121213 | 57 | 178 | 2.0 | 6.0 | 0.00 | 0.00 | 0.00 | 84 | 1008.3 |
| 20260903120503 | 57 | 185 | 4.0 | 13.0 | 0.00 | 0.00 | 0.00 | 84 | 1008.5 |
| 20260903120004 | 57 | 179 | 5.0 | 13.0 | 0.00 | 0.00 | 0.00 | 84 | 1008.5 |
| 20260903115503 | 57 | 177 | 5.0 | 11.0 | 0.00 | 0.00 | 0.00 | 83 | 1008.4 |
| 20260903115003 | 57 | 172 | 5.0 | 8.0 | 0.00 | 0.00 | 0.00 | 84 | 1008.5 |
| 20260903114714 | 57 | 169 | 5.0 | 8.0 | 0.00 | 0.00 | 0.00 | 83 | 1008.6 |
| 20260903114213 | 57 | 181 | 4.0 | 6.0 | 0.00 | 0.00 | 0.00 | 84 | 1008.6 |
| 20260903113503 | 57 | 180 | 3.0 | 8.0 | 0.00 | 0.00 | 0.00 | 83 | 1008.6 |
| 20260903113003 | 57 | 181 | 4.0 | 9.0 | 0.00 | 0.00 | 0.00 | 84 | 1008.7 |
| 20260903112714 | 56 | 179 | 5.0 | 9.0 | 0.00 | 0.00 | 0.00 | 84 | 1008.7 |
| 20260903112003 | 56 | 165 | 4.0 | 9.0 | 0.00 | 0.00 | 0.00 | 84 | 1008.7 |
| 20260903111503 | 56 | 177 | 4.0 | 11.0 | 0.00 | 0.00 | 0.00 | 85 | 1008.7 |
| 20260903111003 | 56 | 178 | 5.0 | 11.0 | 0.00 | 0.00 | 0.00 | 84 | 1008.9 |
| 20260903110503 | 56 | 177 | 5.0 | 9.0 | 0.00 | 0.00 | 0.00 | 85 | 1008.8 |
| 20260903110213 | 56 | 182 | 4.0 | 9.0 | 0.00 | 0.00 | 0.00 | 84 | 1008.9 |
| 20260903105503 | 56 | 189 | 4.0 | 8.0 | 0.00 | 0.00 | 0.00 | 85 | 1009.0 |
| 20260903105213 | 56 | 196 | 4.0 | 8.0 | 0.00 | 0.00 | 0.00 | 84 | 1009.2 |
| 20260903104714 | 56 | 180 | 4.0 | 8.0 | 0.00 | 0.00 | 0.00 | 84 | 1009.1 |
| 20260903104004 | 56 | 179 | 4.0 | 9.0 | 0.00 | 0.00 | 0.00 | 83 | 1009.1 |
| 20260903103503 | 56 | 188 | 4.0 | 9.0 | 0.00 | 0.00 | 0.00 | 83 | 1009.3 |
| 20260903103003 | 56 | 193 | 4.0 | 8.0 | 0.00 | 0.00 | 0.00 | 83 | 1009.5 |
| 20260903102503 | 56 | 197 | 5.0 | 8.0 | 0.00 | 0.00 | 0.00 | 82 | 1009.3 |
| 20260903102003 | 56 | 194 | 4.0 | 8.0 | 0.00 | 0.00 | 0.00 | 82 | 1009.2 |
| 20260903101503 | 56 | 187 | 3.0 | 6.0 | 0.00 | 0.00 | 0.00 | 82 | 1009.4 |
| 20260903101003 | 56 | 209 | 3.0 | 7.0 | 0.00 | 0.00 | 0.00 | 81 | 1009.3 |
| 20260903100503 | 56 | 213 | 3.0 | 7.0 | 0.00 | 0.00 | 0.00 | 81 | 1009.3 |
| 20260903100004 | 56 | 190 | 4.0 | 6.0 | 0.00 | 0.00 | 0.00 | 80 | 1009.6 |
| 20260903095503 | 56 | 186 | 3.0 | 6.0 | 0.00 | 0.00 | 0.00 | 80 | 1009.5 |
| 20260903095003 | 56 | 189 | 3.0 | 7.0 | 0.00 | 0.00 | 0.00 | 80 | 1009.6 |
| 20260903094504 | 56 | 188 | 4.0 | 9.0 | 0.00 | 0.00 | 0.00 | 79 | 1009.6 |
| 20260903094003 | 57 | 208 | 3.0 | 9.0 | 0.00 | 0.00 | 0.00 | 79 | 1009.8 |
| 20260903093504 | 57 | 205 | 3.0 | 8.0 | 0.00 | 0.00 | 0.00 | 78 | 1009.6 |
| 20260903093004 | 56 | 203 | 4.0 | 8.0 | 0.00 | 0.00 | 0.00 | 78 | 1009.7 |
| 20260903092713 | 57 | 212 | 4.0 | 8.0 | 0.00 | 0.00 | 0.00 | 78 | 1009.9 |
| 20260903092003 | 57 | 199 | 3.0 | 8.0 | 0.00 | 0.00 | 0.00 | 77 | 1010.0 |
| 20260903091503 | 57 | 208 | 3.0 | 8.0 | 0.00 | 0.00 | 0.00 | 77 | 1010.0 |
| 20260903091003 | 56 | 205 | 4.0 | 8.0 | 0.00 | 0.00 | 0.00 | 76 | 1009.9 |
| 20260903090503 | 57 | 208 | 3.0 | 7.0 | 0.00 | 0.00 | 0.00 | 77 | 1009.8 |
| 20260903090003 | 56 | 242 | 2.0 | 6.0 | 0.00 | 0.00 | 0.00 | 76 | 1009.9 |
| 20260903085503 | 56 | 219 | 3.0 | 9.0 | 0.00 | 0.00 | 0.00 | 77 | 1009.9 |
| 20260903085003 | 56 | 194 | 4.0 | 9.0 | 0.00 | 0.00 | 0.00 | 76 | 1010.0 |
| 20260903084713 | 56 | 185 | 4.0 | 8.0 | 0.00 | 0.00 | 0.00 | 76 | 1009.9 |
| 20260903084004 | 56 | 217 | 2.0 | 7.0 | 0.00 | 0.00 | 0.00 | 77 | 1010.0 |
| 20260903083713 | 56 | 228 | 2.0 | 7.0 | 0.00 | 0.00 | 0.00 | 77 | 1010.1 |
| 20260903083214 | 56 | 215 | 3.0 | 10.0 | 0.00 | 0.00 | 0.00 | 78 | 1010.2 |
| 20260903082713 | 56 | 195 | 4.0 | 10.0 | 0.00 | 0.00 | 0.00 | 77 | 1010.0 |
| 20260903082003 | 56 | 184 | 5.0 | 9.0 | 0.00 | 0.00 | 0.00 | 78 | 1010.1 |
| 20260903081503 | 55 | 198 | 4.0 | 10.0 | 0.00 | 0.00 | 0.00 | 78 | 1010.2 |
| 20260903081214 | 56 | 194 | 4.0 | 10.0 | 0.00 | 0.00 | 0.00 | 78 | 1010.2 |
| 20260903080713 | 56 | 206 | 2.0 | 10.0 | 0.00 | 0.00 | 0.00 | 78 | 1010.1 |
| 20260903080003 | 55 | 242 | 2.0 | 8.0 | 0.00 | 0.00 | 0.00 | 78 | 1010.1 |
| 20260903075713 | 54 | 228 | 3.0 | 8.0 | 0.00 | 0.00 | 0.00 | 79 | 1010.3 |
| 20260903075003 | 54 | 177 | 4.0 | 8.0 | 0.00 | 0.00 | 0.00 | 80 | 1010.2 |
| 20260903074503 | 54 | 184 | 4.0 | 8.0 | 0.00 | 0.00 | 0.00 | 80 | 1010.2 |
| 20260903074214 | 54 | 195 | 3.0 | 7.0 | 0.00 | 0.00 | 0.00 | 80 | 1010.0 |
| 20260903073503 | 54 | 191 | 3.0 | 6.0 | 0.00 | 0.00 | 0.00 | 82 | 1010.1 |
| 20260903073214 | 54 | 182 | 3.0 | 6.0 | 0.00 | 0.00 | 0.00 | 82 | 1010.2 |
| 20260903072715 | 53 | 177 | 3.0 | 6.0 | 0.00 | 0.00 | 0.00 | 82 | 1010.3 |
| 20260903072003 | 53 | 179 | 4.0 | 6.0 | 0.00 | 0.00 | 0.00 | 82 | 1010.1 |
| 20260903071713 | 53 | 182 | 3.0 | 6.0 | 0.00 | 0.00 | 0.00 | 82 | 1010.2 |
| 20260903071003 | 53 | 175 | 3.0 | 8.0 | 0.00 | 0.00 | 0.00 | 83 | 1010.2 |
| 20260903070503 | 53 | 170 | 4.0 | 8.0 | 0.00 | 0.00 | 0.00 | 81 | 1010.3 |
| 20260903070213 | 53 | 168 | 3.0 | 7.0 | 0.00 | 0.00 | 0.00 | 82 | 1010.1 |
| 20260903065503 | 53 | 183 | 3.0 | 6.0 | 0.00 | 0.00 | 0.00 | 81 | 1010.5 |
| 20260903065003 | 52 | 189 | 3.0 | 6.0 | 0.00 | 0.00 | 0.00 | 83 | 1010.3 |
| 20260903064503 | 52 | 183 | 4.0 | 8.0 | 0.00 | 0.00 | 0.00 | 84 | 1010.3 |
| 20260903064213 | 52 | 185 | 4.0 | 8.0 | 0.00 | 0.00 | 0.00 | 84 | 1010.7 |
| 20260903063503 | 51 | 182 | 4.0 | 8.0 | 0.00 | 0.00 | 0.00 | 85 | 1010.6 |
| 20260903063213 | 51 | 176 | 3.0 | 7.0 | 0.00 | 0.00 | 0.00 | 86 | 1010.5 |
| 20260903062503 | 50 | 164 | 3.0 | 6.0 | 0.00 | 0.00 | 0.00 | 87 | 1010.6 |
| 20260903062004 | 50 | 159 | 4.0 | 6.0 | 0.00 | 0.00 | 0.00 | 88 | 1010.7 |
| 20260903061503 | 50 | 161 | 3.0 | 6.0 | 0.00 | 0.00 | 0.00 | 87 | 1010.5 |
| 20260903061003 | 49 | 179 | 3.0 | 6.0 | 0.00 | 0.00 | 0.00 | 88 | 1010.5 |
| 20260903060504 | 49 | 188 | 3.0 | 6.0 | 0.00 | 0.00 | 0.00 | 89 | 1010.8 |
| 20260903060213 | 49 | 187 | 3.0 | 7.0 | 0.00 | 0.00 | 0.00 | 89 | 1010.7 |
| 20260903055503 | 48 | 171 | 4.0 | 8.0 | 0.00 | 0.00 | 0.00 | 90 | 1010.8 |
| 20260903055003 | 48 | 167 | 4.0 | 9.0 | 0.00 | 0.00 | 0.00 | 91 | 1010.7 |
| 20260903054714 | 48 | 167 | 4.0 | 9.0 | 0.00 | 0.00 | 0.00 | 91 | 1010.8 |
| 20260903054003 | 47 | 148 | 3.0 | 4.0 | 0.00 | 0.00 | 0.00 | 93 | 1010.8 |
| 20260903053503 | 47 | 144 | 3.0 | 6.0 | 0.00 | 0.00 | 0.00 | 94 | 1010.6 |
| 20260903053003 | 46 | 151 | 3.0 | 6.0 | 0.00 | 0.00 | 0.00 | 95 | 1010.8 |
| 20260903052714 | 46 | 141 | 2.0 | 6.0 | 0.00 | 0.00 | 0.00 | 96 | 1010.8 |
| 20260903052213 | 46 | 108 | 1.0 | 4.0 | 0.00 | 0.00 | 0.00 | 96 | 1010.8 |
| 20260903051714 | 46 | 100 | 1.0 | 4.0 | 0.00 | 0.00 | 0.00 | 96 | 1010.9 |
| 20260903051213 | 45 | 123 | 1.0 | 4.0 | 0.00 | 0.00 | 0.00 | 97 | 1010.8 |
| 20260903050503 | 45 | 132 | 0.0 | 3.0 | 0.00 | 0.00 | 0.00 | 96 | 1010.8 |
| 20260903050213 | 45 | 68 | 0.0 | 2.0 | 0.00 | 0.00 | 0.00 | 96 | 1011.0 |
| 20260903045503 | 45 | 59 | 0.0 | 1.0 | 0.00 | 0.00 | 0.00 | 95 | 1010.8 |
| 20260903045003 | 46 | 43 | 0.0 | 2.0 | 0.00 | 0.00 | 0.00 | 95 | 1010.8 |
| 20260903044714 | 46 | 30 | 0.0 | 2.0 | 0.00 | 0.00 | 0.00 | 95 | 1011.0 |
| 20260903044003 | 46 | 27 | 1.0 | 2.0 | 0.00 | 0.00 | 0.00 | 95 | 1010.9 |
| 20260903043503 | 46 | 72 | 1.0 | 2.0 | 0.00 | 0.00 | 0.00 | 94 | 1010.7 |
| 20260903043003 | 47 | 106 | 0.0 | 2.0 | 0.00 | 0.00 | 0.00 | 93 | 1010.9 |
| 20260903042503 | 47 | 98 | 0.0 | 3.0 | 0.00 | 0.00 | 0.00 | 93 | 1010.9 |
| 20260903042004 | 47 | 128 | 0.0 | 3.0 | 0.00 | 0.00 | 0.00 | 93 | 1010.6 |
| 20260903041503 | 48 | 152 | 1.0 | 3.0 | 0.00 | 0.00 | 0.00 | 92 | 1010.9 |
| 20260903041003 | 48 | 160 | 1.0 | 3.0 | 0.00 | 0.00 | 0.00 | 92 | 1011.0 |
| 20260903040503 | 48 | 173 | 2.0 | 3.0 | 0.00 | 0.00 | 0.00 | 92 | 1010.9 |
| 20260903040003 | 48 | 178 | 2.0 | 3.0 | 0.00 | 0.00 | 0.00 | 91 | 1010.9 |
| 20260903035503 | 49 | 185 | 1.0 | 4.0 | 0.00 | 0.00 | 0.00 | 91 | 1011.1 |
| 20260903035003 | 49 | 186 | 1.0 | 4.0 | 0.00 | 0.00 | 0.00 | 91 | 1010.8 |
| 20260903034504 | 49 | 183 | 1.0 | 4.0 | 0.00 | 0.00 | 0.00 | 90 | 1010.9 |
| 20260903034003 | 49 | 190 | 2.0 | 6.0 | 0.00 | 0.00 | 0.00 | 89 | 1010.8 |
| 20260903033503 | 49 | 195 | 2.0 | 7.0 | 0.00 | 0.00 | 0.00 | 89 | 1010.8 |
| 20260903033214 | 49 | 197 | 2.0 | 7.0 | 0.00 | 0.00 | 0.00 | 89 | 1010.8 |
| 20260903032713 | 49 | 197 | 2.0 | 7.0 | 0.00 | 0.00 | 0.00 | 89 | 1010.9 |
| 20260903032214 | 49 | 200 | 2.0 | 4.0 | 0.00 | 0.00 | 0.00 | 89 | 1011.0 |
| 20260903031503 | 49 | 195 | 2.0 | 5.0 | 0.00 | 0.00 | 0.00 | 88 | 1011.1 |
| 20260903031003 | 49 | 199 | 2.0 | 6.0 | 0.00 | 0.00 | 0.00 | 87 | 1010.7 |
| 20260903030713 | 50 | 201 | 2.0 | 6.0 | 0.00 | 0.00 | 0.00 | 87 | 1010.9 |
| 20260903030214 | 50 | 203 | 2.0 | 6.0 | 0.00 | 0.00 | 0.00 | 86 | 1010.8 |
| 20260903025503 | 50 | 215 | 2.0 | 5.0 | 0.00 | 0.00 | 0.00 | 86 | 1010.9 |
| 20260903025214 | 50 | 218 | 2.0 | 5.0 | 0.00 | 0.00 | 0.00 | 86 | 1010.8 |
| 20260903024503 | 50 | 213 | 2.0 | 11.0 | 0.00 | 0.00 | 0.00 | 88 | 1011.1 |
| 20260903024214 | 50 | 222 | 2.0 | 11.0 | 0.00 | 0.00 | 0.00 | 88 | 1011.1 |
| 20260903023713 | 50 | 223 | 2.0 | 11.0 | 0.00 | 0.00 | 0.00 | 90 | 1011.0 |
| 20260903023003 | 49 | 212 | 2.0 | 6.0 | 0.00 | 0.00 | 0.00 | 91 | 1011.2 |
| 20260903022504 | 49 | 197 | 3.0 | 6.0 | 0.00 | 0.00 | 0.00 | 91 | 1011.1 |
| 20260903022003 | 49 | 200 | 4.0 | 6.0 | 0.00 | 0.00 | 0.00 | 91 | 1011.3 |
| 20260903021715 | 49 | 199 | 4.0 | 6.0 | 0.00 | 0.00 | 0.00 | 90 | 1011.2 |
| 20260903021003 | 49 | 193 | 3.0 | 6.0 | 0.00 | 0.00 | 0.00 | 92 | 1011.4 |
| 20260903020503 | 48 | 190 | 2.0 | 6.0 | 0.00 | 0.00 | 0.00 | 93 | 1011.3 |
| 20260903020003 | 48 | 187 | 2.0 | 4.0 | 0.00 | 0.00 | 0.00 | 94 | 1011.3 |
| 20260903015503 | 48 | 192 | 2.0 | 4.0 | 0.00 | 0.00 | 0.00 | 94 | 1011.4 |
| 20260903015214 | 48 | 182 | 2.0 | 4.0 | 0.00 | 0.00 | 0.00 | 94 | 1011.4 |
| 20260903014503 | 48 | 191 | 2.0 | 5.0 | 0.00 | 0.00 | 0.00 | 94 | 1011.4 |
| 20260903014003 | 48 | 178 | 2.0 | 5.0 | 0.00 | 0.00 | 0.00 | 94 | 1011.4 |
| 20260903013504 | 48 | 167 | 2.0 | 4.0 | 0.00 | 0.00 | 0.00 | 95 | 1011.5 |
| 20260903013003 | 48 | 190 | 2.0 | 4.0 | 0.00 | 0.00 | 0.00 | 95 | 1011.4 |
| 20260903012503 | 48 | 195 | 1.0 | 4.0 | 0.00 | 0.00 | 0.00 | 95 | 1011.5 |
| 20260903012213 | 47 | 181 | 1.0 | 3.0 | 0.00 | 0.00 | 0.00 | 95 | 1011.3 |
| 20260903011503 | 48 | 168 | 1.0 | 4.0 | 0.00 | 0.00 | 0.00 | 95 | 1011.5 |
| 20260903011003 | 48 | 162 | 1.0 | 4.0 | 0.00 | 0.00 | 0.00 | 94 | 1011.3 |
| 20260903010504 | 48 | 160 | 1.0 | 4.0 | 0.00 | 0.00 | 0.00 | 94 | 1011.5 |
| 20260903010003 | 48 | 154 | 1.0 | 4.0 | 0.00 | 0.00 | 0.00 | 94 | 1011.7 |
| 20260903005503 | 48 | 151 | 1.0 | 4.0 | 0.00 | 0.00 | 0.00 | 93 | 1011.8 |
| 20260903005213 | 48 | 172 | 2.0 | 5.0 | 0.00 | 0.00 | 0.00 | 93 | 1011.8 |
| 20260903004504 | 49 | 192 | 2.0 | 5.0 | 0.00 | 0.00 | 0.00 | 93 | 1011.5 |
| 20260903004003 | 49 | 201 | 2.0 | 4.0 | 0.00 | 0.00 | 0.00 | 92 | 1011.7 |
| 20260903003503 | 49 | 197 | 3.0 | 5.0 | 0.00 | 0.00 | 0.00 | 92 | 1011.6 |
| 20260903003003 | 49 | 191 | 2.0 | 5.0 | 0.00 | 0.00 | 0.00 | 92 | 1011.7 |
| 20260903002714 | 49 | 192 | 2.0 | 5.0 | 0.00 | 0.00 | 0.00 | 92 | 1011.6 |
| 20260903002213 | 49 | 204 | 2.0 | 5.0 | 0.00 | 0.00 | 0.00 | 91 | 1011.5 |
| 20260903001503 | 49 | 203 | 2.0 | 5.0 | 0.00 | 0.00 | 0.00 | 92 | 1011.9 |
| 20260903001003 | 49 | 200 | 2.0 | 5.0 | 0.00 | 0.00 | 0.00 | 92 | 1011.7 |
| 20260903000503 | 49 | 206 | 2.0 | 5.0 | 0.00 | 0.00 | 0.00 | 92 | 1011.7 |
| 20260903000004 | 49 | 211 | 2.0 | 5.0 | 0.00 | 0.00 | 0.00 | 92 | 1011.7 |
| 20260902235503 | 49 | 195 | 2.0 | 6.0 | 0.00 | 0.00 | 0.00 | 92 | 1011.6 |
| 20260902235003 | 49 | 192 | 2.0 | 6.0 | 0.00 | 0.00 | 0.00 | 93 | 1011.5 |
| 20260902234503 | 49 | 201 | 2.0 | 4.0 | 0.00 | 0.00 | 0.00 | 93 | 1011.7 |
| 20260902234003 | 49 | 193 | 2.0 | 5.0 | 0.00 | 0.00 | 0.00 | 92 | 1011.8 |
| 20260902233503 | 49 | 185 | 3.0 | 5.0 | 0.00 | 0.00 | 0.00 | 92 | 1011.6 |
| 20260902233003 | 49 | 190 | 3.0 | 7.0 | 0.00 | 0.00 | 0.00 | 92 | 1011.5 |
| 20260902232503 | 49 | 214 | 2.0 | 7.0 | 0.00 | 0.00 | 0.00 | 91 | 1011.6 |
| 20260902232003 | 50 | 216 | 2.0 | 7.0 | 0.00 | 0.00 | 0.00 | 91 | 1011.8 |
| 20260902231503 | 50 | 190 | 3.0 | 7.0 | 0.00 | 0.00 | 0.00 | 91 | 1011.8 |
| 20260902231003 | 50 | 189 | 3.0 | 7.0 | 0.00 | 0.00 | 0.00 | 91 | 1011.7 |
| 20260902230714 | 50 | 192 | 3.0 | 7.0 | 0.00 | 0.00 | 0.00 | 91 | 1011.6 |
| 20260902230212 | 50 | 200 | 3.0 | 7.0 | 0.00 | 0.00 | 0.00 | 91 | 1011.6 |
| 20260902225503 | 50 | 203 | 3.0 | 6.0 | 0.00 | 0.00 | 0.00 | 91 | 1011.7 |
| 20260902225212 | 50 | 204 | 3.0 | 6.0 | 0.00 | 0.00 | 0.00 | 91 | 1011.7 |
| 20260902224504 | 50 | 188 | 3.0 | 6.0 | 0.00 | 0.00 | 0.00 | 91 | 1011.8 |
| 20260902224212 | 50 | 192 | 3.0 | 6.0 | 0.00 | 0.00 | 0.00 | 91 | 1011.8 |
| 20260902223713 | 50 | 202 | 3.0 | 6.0 | 0.00 | 0.00 | 0.00 | 91 | 1011.7 |
| 20260902223003 | 50 | 191 | 3.0 | 5.0 | 0.00 | 0.00 | 0.00 | 91 | 1011.7 |
| 20260902222503 | 51 | 191 | 3.0 | 5.0 | 0.00 | 0.00 | 0.00 | 91 | 1011.7 |
| 20260902222004 | 51 | 187 | 3.0 | 7.0 | 0.00 | 0.00 | 0.00 | 90 | 1011.8 |
| 20260902221503 | 51 | 193 | 2.0 | 7.0 | 0.00 | 0.00 | 0.00 | 89 | 1011.8 |
| 20260902221214 | 51 | 196 | 3.0 | 7.0 | 0.00 | 0.00 | 0.00 | 89 | 1011.9 |
| 20260902220503 | 51 | 198 | 3.0 | 7.0 | 0.00 | 0.00 | 0.00 | 88 | 1011.8 |
| 20260902220004 | 51 | 200 | 3.0 | 7.0 | 0.00 | 0.00 | 0.00 | 88 | 1011.7 |
| 20260902215503 | 52 | 192 | 3.0 | 7.0 | 0.00 | 0.00 | 0.00 | 87 | 1011.8 |
| 20260902215214 | 52 | 196 | 3.0 | 7.0 | 0.00 | 0.00 | 0.00 | 87 | 1011.9 |
| 20260902214713 | 52 | 202 | 3.0 | 8.0 | 0.00 | 0.00 | 0.00 | 87 | 1011.8 |
| 20260902214214 | 52 | 217 | 3.0 | 8.0 | 0.00 | 0.00 | 0.00 | 87 | 1011.7 |
| 20260902213503 | 52 | 221 | 3.0 | 7.0 | 0.00 | 0.00 | 0.00 | 88 | 1011.7 |
| 20260902213003 | 52 | 213 | 3.0 | 8.0 | 0.00 | 0.00 | 0.00 | 88 | 1011.7 |
| 20260902212503 | 52 | 206 | 4.0 | 8.0 | 0.00 | 0.00 | 0.00 | 88 | 1011.8 |
| 20260902212003 | 52 | 211 | 3.0 | 7.0 | 0.00 | 0.00 | 0.00 | 89 | 1011.6 |
| 20260902211503 | 52 | 191 | 3.0 | 13.0 | 0.00 | 0.00 | 0.00 | 89 | 1011.6 |
| 20260902211003 | 52 | 186 | 4.0 | 13.0 | 0.00 | 0.00 | 0.00 | 89 | 1011.6 |
| 20260902210503 | 52 | 216 | 3.0 | 7.0 | 0.00 | 0.00 | 0.00 | 89 | 1011.6 |
| 20260902210003 | 52 | 204 | 4.0 | 10.0 | 0.00 | 0.00 | 0.00 | 90 | 1011.6 |
| 20260902205503 | 52 | 194 | 4.0 | 10.0 | 0.00 | 0.00 | 0.00 | 89 | 1011.8 |
| 20260902205214 | 52 | 205 | 3.0 | 10.0 | 0.00 | 0.00 | 0.00 | 90 | 1011.6 |
| 20260902204503 | 52 | 217 | 3.0 | 7.0 | 0.00 | 0.00 | 0.00 | 90 | 1011.9 |
| 20260902204003 | 52 | 207 | 3.0 | 6.0 | 0.00 | 0.00 | 0.00 | 91 | 1011.6 |
| 20260902203504 | 52 | 197 | 3.0 | 6.0 | 0.00 | 0.00 | 0.00 | 92 | 1011.9 |
| 20260902203003 | 52 | 203 | 2.0 | 6.0 | 0.00 | 0.00 | 0.00 | 92 | 1011.9 |
| 20260902202503 | 52 | 224 | 2.0 | 6.0 | 0.00 | 0.00 | 0.00 | 92 | 1012.0 |
| 20260902202214 | 52 | 222 | 2.0 | 6.0 | 0.00 | 0.00 | 0.00 | 91 | 1011.9 |
| 20260902201504 | 52 | 197 | 3.0 | 6.0 | 0.00 | 0.00 | 0.00 | 92 | 1012.0 |
| 20260902201003 | 52 | 191 | 2.0 | 4.0 | 0.00 | 0.00 | 0.00 | 92 | 1011.9 |
| 20260902200503 | 52 | 205 | 1.0 | 4.0 | 0.00 | 0.00 | 0.00 | 91 | 1011.9 |
| 20260902200213 | 52 | 204 | 1.0 | 4.0 | 0.00 | 0.00 | 0.00 | 91 | 1011.9 |
| 20260902195503 | 52 | 201 | 1.0 | 4.0 | 0.00 | 0.00 | 0.00 | 90 | 1011.9 |
| 20260902195003 | 52 | 204 | 1.0 | 4.0 | 0.00 | 0.00 | 0.00 | 91 | 1011.8 |
| 20260902194503 | 52 | 190 | 1.0 | 4.0 | 0.00 | 0.00 | 0.00 | 90 | 1012.0 |
| 20260902194003 | 52 | 188 | 1.0 | 4.0 | 0.00 | 0.00 | 0.00 | 90 | 1011.8 |
| 20260902193714 | 52 | 191 | 1.0 | 4.0 | 0.00 | 0.00 | 0.00 | 90 | 1011.9 |
| 20260902193213 | 52 | 207 | 0.0 | 2.0 | 0.00 | 0.00 | 0.00 | 90 | 1011.9 |
| 20260902192504 | 52 | 228 | 0.0 | 2.0 | 0.00 | 0.00 | 0.00 | 89 | 1011.9 |
| 20260902192004 | 52 | 206 | 0.0 | 2.0 | 0.00 | 0.00 | 0.00 | 89 | 1011.9 |
| 20260902191504 | 53 | 231 | 0.0 | 2.0 | 0.00 | 0.00 | 0.00 | 88 | 1011.9 |
| 20260902191003 | 53 | 218 | 1.0 | 3.0 | 0.00 | 0.00 | 0.00 | 87 | 1011.9 |
| 20260902190714 | 53 | 206 | 1.0 | 3.0 | 0.00 | 0.00 | 0.00 | 87 | 1011.9 |
| 20260902190213 | 53 | 186 | 1.0 | 3.0 | 0.00 | 0.00 | 0.00 | 87 | 1011.8 |
| 20260902185714 | 54 | 218 | 1.0 | 4.0 | 0.00 | 0.00 | 0.00 | 85 | 1011.9 |
| 20260902185003 | 54 | 208 | 1.0 | 4.0 | 0.00 | 0.00 | 0.00 | 84 | 1011.8 |
| 20260902184503 | 54 | 193 | 1.0 | 2.0 | 0.00 | 0.00 | 0.00 | 84 | 1011.7 |
| 20260902184003 | 54 | 189 | 1.0 | 3.0 | 0.00 | 0.00 | 0.00 | 83 | 1011.9 |
| 20260902183504 | 54 | 210 | 1.0 | 3.0 | 0.00 | 0.00 | 0.00 | 82 | 1012.0 |
| 20260902183003 | 55 | 213 | 1.0 | 3.0 | 0.00 | 0.00 | 0.00 | 82 | 1011.8 |
| 20260902182503 | 55 | 227 | 1.0 | 4.0 | 0.00 | 0.00 | 0.00 | 81 | 1011.7 |
| 20260902182004 | 55 | 240 | 1.0 | 4.0 | 0.00 | 0.00 | 0.00 | 81 | 1012.0 |
| 20260902181504 | 56 | 227 | 1.0 | 4.0 | 0.00 | 0.00 | 0.00 | 80 | 1011.8 |
| 20260902181003 | 56 | 231 | 2.0 | 4.0 | 0.00 | 0.00 | 0.00 | 79 | 1011.8 |
| 20260902180714 | 56 | 237 | 1.0 | 4.0 | 0.00 | 0.00 | 0.00 | 79 | 1012.0 |
| 20260902180006 | 56 | 257 | 1.0 | 4.0 | 0.00 | 0.00 | 0.00 | 80 | 1011.5 |
| 20260902175714 | 56 | 247 | 1.0 | 4.0 | 0.00 | 0.00 | 0.00 | 79 | 1011.8 |
| 20260902175003 | 57 | 220 | 1.0 | 4.0 | 0.00 | 0.00 | 0.00 | 78 | 1011.5 |
| 20260902174503 | 57 | 213 | 2.0 | 7.0 | 0.00 | 0.00 | 0.00 | 78 | 1011.6 |
| 20260902174212 | 57 | 222 | 2.0 | 7.0 | 0.00 | 0.00 | 0.00 | 77 | 1011.8 |
| 20260902173504 | 58 | 244 | 2.0 | 5.0 | 0.00 | 0.00 | 0.00 | 78 | 1011.6 |
| 20260902173004 | 58 | 221 | 2.0 | 5.0 | 0.00 | 0.00 | 0.00 | 78 | 1011.5 |
| 20260902172713 | 58 | 251 | 2.0 | 5.0 | 0.00 | 0.00 | 0.00 | 77 | 1011.5 |
| 20260902172214 | 58 | 249 | 2.0 | 5.0 | 0.00 | 0.00 | 0.00 | 77 | 1011.4 |
| 20260902171503 | 59 | 253 | 2.0 | 5.0 | 0.00 | 0.00 | 0.00 | 78 | 1011.7 |
| 20260902171003 | 59 | 235 | 2.0 | 5.0 | 0.00 | 0.00 | 0.00 | 77 | 1011.4 |
| 20260902170503 | 59 | 225 | 2.0 | 7.0 | 0.00 | 0.00 | 0.00 | 78 | 1011.4 |
| 20260902170004 | 59 | 222 | 2.0 | 7.0 | 0.00 | 0.00 | 0.00 | 80 | 1011.4 |
| 20260902165503 | 60 | 227 | 3.0 | 7.0 | 0.00 | 0.00 | 0.00 | 81 | 1011.5 |
| 20260902165214 | 59 | 221 | 3.0 | 7.0 | 0.00 | 0.00 | 0.00 | 81 | 1011.3 |
| 20260902164503 | 60 | 233 | 3.0 | 10.0 | 0.00 | 0.00 | 0.00 | 80 | 1011.3 |
| 20260902164003 | 60 | 220 | 4.0 | 10.0 | 0.00 | 0.00 | 0.00 | 81 | 1011.5 |
| 20260902163503 | 60 | 205 | 5.0 | 10.0 | 0.00 | 0.00 | 0.00 | 80 | 1011.2 |
| 20260902163214 | 60 | 212 | 4.0 | 9.0 | 0.00 | 0.00 | 0.00 | 80 | 1011.3 |
| 20260902162713 | 60 | 213 | 4.0 | 9.0 | 0.00 | 0.00 | 0.00 | 82 | 1011.4 |
| 20260902162214 | 60 | 223 | 3.0 | 8.0 | 0.00 | 0.00 | 0.00 | 81 | 1011.2 |
| 20260902161504 | 60 | 233 | 3.0 | 8.0 | 0.00 | 0.00 | 0.00 | 80 | 1011.3 |
| 20260902161003 | 60 | 228 | 3.0 | 8.0 | 0.00 | 0.00 | 0.00 | 82 | 1011.3 |
| 20260902160504 | 60 | 232 | 3.0 | 6.0 | 0.00 | 0.00 | 0.00 | 82 | 1011.3 |
| 20260902160004 | 60 | 232 | 3.0 | 11.0 | 0.00 | 0.00 | 0.00 | 84 | 1011.4 |
| 20260902155503 | 60 | 235 | 3.0 | 11.0 | 0.00 | 0.00 | 0.00 | 83 | 1011.4 |
| 20260902155004 | 60 | 232 | 3.0 | 11.0 | 0.00 | 0.00 | 0.00 | 83 | 1011.3 |
| 20260902154713 | 60 | 233 | 3.0 | 9.0 | 0.00 | 0.00 | 0.00 | 82 | 1011.4 |
| 20260902154003 | 61 | 224 | 4.0 | 9.0 | 0.00 | 0.00 | 0.00 | 81 | 1011.5 |
| 20260902153503 | 61 | 232 | 4.0 | 9.0 | 0.00 | 0.00 | 0.00 | 80 | 1011.5 |
| 20260902153003 | 60 | 228 | 3.0 | 9.0 | 0.00 | 0.00 | 0.00 | 81 | 1011.3 |
| 20260902152503 | 60 | 211 | 3.0 | 8.0 | 0.00 | 0.00 | 0.00 | 82 | 1011.4 |
| 20260902152003 | 60 | 224 | 4.0 | 9.0 | 0.00 | 0.00 | 0.00 | 82 | 1011.4 |
| 20260902151713 | 60 | 229 | 4.0 | 9.0 | 0.00 | 0.00 | 0.00 | 82 | 1011.4 |
| 20260902151004 | 60 | 211 | 4.0 | 9.0 | 0.00 | 0.00 | 0.00 | 82 | 1011.6 |
| 20260902150504 | 60 | 218 | 3.0 | 9.0 | 0.00 | 0.00 | 0.00 | 82 | 1011.4 |
| 20260902150214 | 60 | 222 | 3.0 | 9.0 | 0.00 | 0.00 | 0.00 | 83 | 1011.6 |
| 20260902145712 | 60 | 228 | 3.0 | 7.0 | 0.00 | 0.00 | 0.00 | 84 | 1011.6 |
| 20260902145004 | 60 | 217 | 3.0 | 8.0 | 0.00 | 0.00 | 0.00 | 85 | 1011.6 |
| 20260902144503 | 60 | 209 | 3.0 | 8.0 | 0.00 | 0.00 | 0.00 | 86 | 1011.6 |
| 20260902144213 | 60 | 215 | 2.0 | 5.0 | 0.00 | 0.00 | 0.00 | 87 | 1011.6 |
| 20260902143504 | 60 | 223 | 2.0 | 6.0 | 0.00 | 0.00 | 0.00 | 87 | 1011.4 |
| 20260902143004 | 60 | 232 | 2.0 | 6.0 | 0.00 | 0.00 | 0.00 | 86 | 1011.6 |
| 20260902142504 | 60 | 235 | 3.0 | 6.0 | 0.00 | 0.00 | 0.00 | 85 | 1011.6 |
| 20260902142003 | 60 | 238 | 3.0 | 6.0 | 0.00 | 0.00 | 0.00 | 84 | 1011.7 |
| 20260902141503 | 60 | 244 | 2.0 | 6.0 | 0.00 | 0.00 | 0.00 | 83 | 1011.6 |
| 20260902141213 | 60 | 225 | 3.0 | 8.0 | 0.00 | 0.00 | 0.00 | 83 | 1011.7 |
| 20260902140504 | 61 | 213 | 5.0 | 13.0 | 0.00 | 0.00 | 0.00 | 82 | 1011.7 |
| 20260902140213 | 61 | 216 | 5.0 | 13.0 | 0.00 | 0.00 | 0.00 | 80 | 1011.6 |
| 20260902135503 | 62 | 203 | 4.0 | 13.0 | 0.00 | 0.00 | 0.00 | 77 | 1011.5 |
| 20260902135003 | 61 | 224 | 2.0 | 5.0 | 0.00 | 0.00 | 0.00 | 81 | 1011.5 |
| 20260902134714 | 61 | 235 | 2.0 | 6.0 | 0.00 | 0.00 | 0.00 | 81 | 1011.6 |
| 20260902134003 | 61 | 222 | 2.0 | 7.0 | 0.00 | 0.00 | 0.00 | 82 | 1011.7 |
| 20260902133503 | 60 | 229 | 2.0 | 7.0 | 0.00 | 0.00 | 0.00 | 82 | 1011.6 |
| 20260902133213 | 60 | 226 | 3.0 | 7.0 | 0.00 | 0.00 | 0.00 | 82 | 1011.7 |
| 20260902132714 | 60 | 243 | 3.0 | 8.0 | 0.00 | 0.00 | 0.00 | 84 | 1011.7 |
| 20260902132003 | 61 | 261 | 2.0 | 8.0 | 0.00 | 0.00 | 0.00 | 82 | 1011.8 |
| 20260902131503 | 61 | 229 | 3.0 | 7.0 | 0.00 | 0.00 | 0.00 | 81 | 1011.7 |
| 20260902131003 | 61 | 238 | 3.0 | 7.0 | 0.00 | 0.00 | 0.00 | 80 | 1011.8 |
| 20260902130714 | 62 | 249 | 3.0 | 7.0 | 0.00 | 0.00 | 0.00 | 80 | 1011.8 |
| 20260902130213 | 62 | 246 | 3.0 | 7.0 | 0.00 | 0.00 | 0.00 | 80 | 1011.7 |
| 20260902125504 | 63 | 245 | 3.0 | 7.0 | 0.00 | 0.00 | 0.00 | 78 | 1011.8 |